Previsão horária em Aathal

Hoje, 18 Abril, Domingo

Tempo Temperatura Precipitação Vento Pressão Humidade
00:00 +3°C° 0 mm 1 m/s 715 mmHg 93%
01:00 +3°C° 0 mm 1 m/s 714 mmHg 97%
02:00 +3°C° 0 mm 1 m/s 714 mmHg 95%
03:00 +3°C° 0 mm 1 m/s 714 mmHg 94%
04:00 +3°C° 0 mm 1 m/s 714 mmHg 92%
05:00 +3°C° 0.1 mm 1 m/s 714 mmHg 94%
06:00 +2°C° 0.1 mm 0 m/s 714 mmHg 95%
07:00 +2°C° 0 mm 0 m/s 715 mmHg 97%
08:00 +3°C° 0.1 mm 0 m/s 715 mmHg 96%
09:00 +4°C° 0.1 mm 1 m/s 715 mmHg 95%
10:00 +4°C° 0.1 mm 1 m/s 715 mmHg 94%
11:00 +5°C° 0.1 mm 1 m/s 715 mmHg 91%
12:00 +6°C° 0.1 mm 1 m/s 715 mmHg 88%
13:00 +6°C° 0 mm 1 m/s 715 mmHg 83%
14:00 +7°C° 0.1 mm 1 m/s 715 mmHg 80%
15:00 +7°C° 0.1 mm 1 m/s 714 mmHg 76%
16:00 +8°C° 0.1 mm 1 m/s 714 mmHg 73%
17:00 +7°C° 0.1 mm 1 m/s 714 mmHg 79%
18:00 +6°C° 0.1 mm 1 m/s 715 mmHg 85%
19:00 +5°C° 0.1 mm 1 m/s 715 mmHg 91%
20:00 +4°C° 0 mm 0 m/s 715 mmHg 92%
21:00 +3°C° 0 mm 0 m/s 715 mmHg 93%
22:00 +3°C° 0 mm 0 m/s 715 mmHg 94%
23:00 +3°C° 0 mm 0 m/s 715 mmHg 94%

Amanhã, 19 Abril, Segunda-feira

Tempo Temperatura Precipitação Vento Pressão Humidade
00:00 +2°C° 0 mm 0 m/s 715 mmHg 94%
01:00 +2°C° 0 mm 0 m/s 715 mmHg 93%
02:00 +2°C° 0 mm 0 m/s 715 mmHg 93%
03:00 +2°C° 0 mm 0 m/s 715 mmHg 94%
04:00 +1°C° 0 mm 0 m/s 715 mmHg 94%
05:00 +2°C° 0 mm 0 m/s 715 mmHg 92%
06:00 +2°C° 0 mm 0 m/s 715 mmHg 91%
07:00 +3°C° 0 mm 0 m/s 715 mmHg 90%
08:00 +4°C° 0 mm 0 m/s 715 mmHg 84%
09:00 +6°C° 0 mm 1 m/s 715 mmHg 79%
10:00 +8°C° 0 mm 1 m/s 715 mmHg 73%
11:00 +9°C° 0.1 mm 1 m/s 715 mmHg 67%
12:00 +10°C° 0.1 mm 1 m/s 714 mmHg 62%
13:00 +11°C° 0.1 mm 1 m/s 714 mmHg 56%
14:00 +10°C° 0 mm 1 m/s 714 mmHg 57%
15:00 +10°C° 0 mm 1 m/s 714 mmHg 57%
16:00 +10°C° 0 mm 1 m/s 714 mmHg 58%
17:00 +8°C° 0 mm 0 m/s 714 mmHg 65%
18:00 +7°C° 0 mm 0 m/s 714 mmHg 72%
19:00 +5°C° 0 mm 0 m/s 714 mmHg 78%
20:00 +4°C° 0 mm 0 m/s 714 mmHg 82%
21:00 +4°C° 0 mm 1 m/s 714 mmHg 86%
22:00 +3°C° 0 mm 1 m/s 714 mmHg 89%
23:00 +3°C° 0 mm 1 m/s 714 mmHg 90%

Depois de amanhã, 20 Abril, Terça-feira

Tempo Temperatura Precipitação Vento Pressão Humidade
00:00 +2°C° 0 mm 1 m/s 714 mmHg 90%
01:00 +2°C° 0 mm 1 m/s 714 mmHg 90%
02:00 +2°C° 0 mm 1 m/s 714 mmHg 90%
03:00 +1°C° 0 mm 1 m/s 714 mmHg 90%
04:00 +1°C° 0 mm 1 m/s 714 mmHg 89%
05:00 +2°C° 0 mm 1 m/s 714 mmHg 85%
06:00 +2°C° 0 mm 0 m/s 714 mmHg 81%
07:00 +3°C° 0 mm 0 m/s 714 mmHg 77%
08:00 +5°C° 0 mm 0 m/s 714 mmHg 71%
09:00 +9°C° 0 mm 1 m/s 713 mmHg 65%
10:00 +11°C° 0 mm 1 m/s 713 mmHg 59%
11:00 +12°C° 0 mm 1 m/s 713 mmHg 57%
12:00 +12°C° 0 mm 1 m/s 713 mmHg 54%
13:00 +13°C° 0 mm 2 m/s 712 mmHg 52%
14:00 +13°C° 0.1 mm 2 m/s 712 mmHg 52%
15:00 +13°C° 0.1 mm 2 m/s 712 mmHg 52%
16:00 +13°C° 0.1 mm 2 m/s 712 mmHg 53%
17:00 +12°C° 0.1 mm 1 m/s 712 mmHg 61%
18:00 +10°C° 0.1 mm 1 m/s 712 mmHg 70%
19:00 +8°C° 0.1 mm 1 m/s 712 mmHg 79%
20:00 +7°C° 0 mm 1 m/s 712 mmHg 82%
21:00 +6°C° 0 mm 1 m/s 712 mmHg 86%
22:00 +5°C° 0 mm 1 m/s 713 mmHg 89%
23:00 +4°C° 0 mm 1 m/s 713 mmHg 90%

21 Abril, Quarta-feira

Tempo Temperatura Precipitação Vento Pressão Humidade
00:00 +4°C° 0 mm 1 m/s 713 mmHg 90%
01:00 +4°C° 0 mm 1 m/s 713 mmHg 90%
02:00 +3°C° 0 mm 1 m/s 713 mmHg 90%
03:00 +3°C° 0 mm 1 m/s 713 mmHg 91%
04:00 +3°C° 0 mm 1 m/s 713 mmHg 91%
05:00 +4°C° 0 mm 1 m/s 713 mmHg 87%
06:00 +4°C° 0 mm 0 m/s 713 mmHg 84%
07:00 +5°C° 0 mm 0 m/s 713 mmHg 80%
08:00 +7°C° 0 mm 0 m/s 713 mmHg 72%
09:00 +10°C° 0 mm 1 m/s 713 mmHg 64%
10:00 +13°C° 0 mm 1 m/s 713 mmHg 57%
11:00 +14°C° 0.1 mm 1 m/s 713 mmHg 53%
12:00 +15°C° 0.1 mm 1 m/s 713 mmHg 49%
13:00 +16°C° 0.1 mm 1 m/s 713 mmHg 44%
14:00 +16°C° 0.1 mm 1 m/s 712 mmHg 44%
15:00 +16°C° 0.1 mm 1 m/s 712 mmHg 43%
16:00 +16°C° 0.1 mm 1 m/s 712 mmHg 43%
17:00 +14°C° 0.1 mm 1 m/s 712 mmHg 52%
18:00 +12°C° 0.1 mm 1 m/s 712 mmHg 61%
19:00 +10°C° 0.1 mm 1 m/s 712 mmHg 71%
20:00 +9°C° 0.1 mm 1 m/s 712 mmHg 76%
21:00 +8°C° 0.1 mm 1 m/s 713 mmHg 81%
22:00 +7°C° 0.1 mm 1 m/s 713 mmHg 86%
23:00 +6°C° 0 mm 1 m/s 713 mmHg 87%

22 Abril, Quinta-feira

Tempo Temperatura Precipitação Vento Pressão Humidade
00:00 +6°C° 0 mm 1 m/s 713 mmHg 88%
01:00 +5°C° 0 mm 1 m/s 714 mmHg 89%
02:00 +5°C° 0 mm 1 m/s 714 mmHg 90%
03:00 +5°C° 0 mm 1 m/s 714 mmHg 90%
04:00 +4°C° 0 mm 1 m/s 714 mmHg 91%
05:00 +4°C° 0 mm 0 m/s 714 mmHg 88%
06:00 +5°C° 0 mm 0 m/s 715 mmHg 86%
07:00 +6°C° 0 mm 0 m/s 715 mmHg 84%
08:00 +7°C° 0 mm 0 m/s 715 mmHg 80%
09:00 +9°C° 0 mm 1 m/s 716 mmHg 77%
10:00 +11°C° 0 mm 1 m/s 716 mmHg 74%
11:00 +10°C° 0.1 mm 2 m/s 716 mmHg 72%
12:00 +12°C° 0.1 mm 2 m/s 716 mmHg 71%
13:00 +12°C° 0.1 mm 2 m/s 716 mmHg 69%
14:00 +12°C° 0 mm 2 m/s 716 mmHg 69%
15:00 +12°C° 0 mm 2 m/s 716 mmHg 70%
16:00 +12°C° 0 mm 2 m/s 716 mmHg 70%
17:00 +10°C° 0 mm 2 m/s 716 mmHg 75%
18:00 +9°C° 0 mm 2 m/s 716 mmHg 79%
19:00 +9°C° 0 mm 1 m/s 716 mmHg 84%
20:00 +8°C° 0 mm 1 m/s 717 mmHg 86%
21:00 +7°C° 0 mm 1 m/s 717 mmHg 89%
22:00 +6°C° 0 mm 1 m/s 717 mmHg 91%
23:00 +5°C° 0 mm 1 m/s 717 mmHg 90%

23 Abril, Sexta-feira

Tempo Temperatura Precipitação Vento Pressão Humidade
00:00 +4°C° 0 mm 1 m/s 717 mmHg 90%
01:00 +3°C° 0 mm 1 m/s 717 mmHg 89%
02:00 +2°C° 0 mm 1 m/s 717 mmHg 90%
03:00 +2°C° 0 mm 1 m/s 717 mmHg 91%
04:00 +1°C° 0 mm 1 m/s 717 mmHg 91%
05:00 +2°C° 0 mm 1 m/s 717 mmHg 87%
06:00 +3°C° 0 mm 1 m/s 717 mmHg 83%
07:00 +4°C° 0 mm 1 m/s 717 mmHg 79%
08:00 +7°C° 0 mm 1 m/s 717 mmHg 69%
09:00 +8°C° 0 mm 2 m/s 717 mmHg 60%
10:00 +12°C° 0 mm 2 m/s 717 mmHg 50%
11:00 +12°C° 0 mm 3 m/s 717 mmHg 46%
12:00 +14°C° 0 mm 3 m/s 716 mmHg 42%
13:00 +16°C° 0 mm 3 m/s 716 mmHg 38%
14:00 +16°C° 0 mm 3 m/s 716 mmHg 38%
15:00 +17°C° 0 mm 3 m/s 715 mmHg 39%
16:00 +17°C° 0 mm 3 m/s 715 mmHg 40%
17:00 +14°C° 0 mm 3 m/s 715 mmHg 50%
18:00 +12°C° 0 mm 2 m/s 715 mmHg 61%
19:00 +10°C° 0 mm 1 m/s 715 mmHg 71%
20:00 +9°C° 0 mm 1 m/s 715 mmHg 75%
21:00 +8°C° 0 mm 1 m/s 715 mmHg 79%
22:00 +6°C° 0 mm 1 m/s 715 mmHg 83%
23:00 +6°C° 0 mm 1 m/s 716 mmHg 84%
Mostrar mais